Regional Weather Roundup
Issued by NWS

Home | Current Version | Previous Version | Text Only | Print | Product List | Glossary On
Versions: 1 2 3 4 5 6 7 8 9 10 11 12 13 14 15 16 17 18 19 20 21 22 23 24 25 26 27 28 29 30 31 32 33 34 35 36 37 38 39 40 41 42 43 44 45 46 47 48 49 50
548
ASUS43 KMKX 210200
RWRWI

WISCONSIN REGIONAL WEATHER ROUNDUP
NATIONAL WEATHER SERVICE MILWAUKEE/SULLIVAN WI
900 PM CDT WED SEP 20 2017

NOTE: "FAIR" INDICATES FEW OR NO CLOUDS BELOW 12,000 FEET WITH NO
SIGNIFICANT WEATHER AND/OR OBSTRUCTIONS TO VISIBILITY.

WIZ001-002-006>008-014>016-023>028-210300-
NORTHWEST WISCONSIN

CITY           SKY/WX    TMP DP  RH WIND       PRES   REMARKS
SUPERIOR ARPT  CLEAR     52  48  86 SW3       29.88R
ASHLAND        CLEAR     56  52  86 SW5       29.89R
HAYWARD        CLEAR     55  52  89 CALM      29.90R
SIREN          CLEAR     56  51  84 CALM      29.89R
CUMBERLAND     CLEAR     55  52  88 NW5       29.89R
RICE LAKE      CLEAR     60  53  78 CALM      29.90R
CHETEK         CLEAR     60  56  87 CALM      29.88R
LADYSMITH      CLEAR     61  55  79 NW3       29.90R
EAU CLAIRE     CLEAR     61  55  81 NW5       29.87R
MENOMONIE      CLEAR     62  57  83 CALM      29.88R
NEW RICHMOND   CLEAR     57  50  79 CALM      29.89R
OSCEOLA        CLEAR     55  55 100 CALM      29.91R
$$

WIZ003>005-009-010-017-018-210300-
NORTH CENTRAL WISCONSIN

CITY           SKY/WX    TMP DP  RH WIND       PRES   REMARKS
MANITOWISH WTR FOG       59  59 100 CALM      29.91R VSB 1/4
ARBOR VITAE    FOG       63  62  97 CALM      29.91R VSB 1/4
WOODRUFF       FOG       63  62  97 CALM      29.91R VSB 1/4
RHINELANDER    CLOUDY    66  66 100 CALM      29.91S FOG
EAGLE RIVER    CLOUDY    66  66 100 CALM      29.91R FOG
LAND O LAKES   CLOUDY    66  66 100 CALM      29.93R FOG
PHILLIPS       CLEAR     57  57 100 CALM      29.90R
TOMAHAWK         N/A     63  62  95 W3        29.91R FOG
MEDFORD        MOCLDY    58  58  97 CALM      29.89R
MERRILL        NOT AVBL
$$

WIZ029-030-035-036-043>047-210300-
CENTRAL WISCONSIN

CITY           SKY/WX    TMP DP  RH WIND       PRES   REMARKS
WAUSAU         CLOUDY    69  66  90 NW7       29.86S
MOSINEE        PTCLDY    70  66  88 N7        29.89R
MARSHFIELD     CLOUDY    69  63  81 N7        29.87S
STEVENS POINT  CLOUDY    66  66 100 NW6       29.86R
WAUPACA        LGT RAIN  70  69  96 S6        29.84F
WAUTOMA        LGT RAIN  71  70  96 N3        29.85F
WISC RAPIDS    CLOUDY    70  68  93 N7        29.88R
CAMP DOUGLAS   NOT AVBL
$$

WIZ011>013-019>022-031-037>040-048>050-210300-
NORTHEAST WISCONSIN

CITY           SKY/WX    TMP DP  RH WIND       PRES   REMARKS
ANTIGO         FOG       66  66 100 CALM      29.89R VSB 3/4
SHAWANO        CLOUDY    71  67  87 S3        29.87S
OCONTO         CLOUDY    69  68  98 SW3       29.88R
STURGEON BAY   LGT RAIN  71  67  87 SW10      29.90
GREEN BAY      TSTM      73  73 100 SW5       29.89R FOG
MANITOWOC      LGT RAIN  72  68  87 VRB5G18   29.89R
APPLETON       TSTM      70  70 100 VRB7      29.88R
CLINTONVILLE   NOT AVBL
OSHKOSH        TSTM      70  68  93 NE10      29.91R
$$

WIZ032>034-041-042-053>061-210300-
SOUTHWEST WISCONSIN

CITY           SKY/WX    TMP DP  RH WIND       PRES   REMARKS
LA CROSSE      NOT AVBL
SPARTA         CLOUDY    67  66  98 CALM      29.87R
VIROQUA        PTCLDY    68  67  96 NW5       29.88R
BOSCOBEL       MOCLDY    75  71  87 NW3       29.83S
PRAIRIE DU CHI CLOUDY    74  71  91 CALM      29.83R
PLATTEVILLE    CLOUDY    74  74  99 S9        29.84F
$$

WIZ056-057-062-063-064-067-068-210300-
SOUTH CENTRAL WISCONSIN

CITY           SKY/WX    TMP DP  RH WIND       PRES   REMARKS
REEDSBURG      CLOUDY    71  71 100 NW7       29.85R
BARABOO/DELLS  TSTM      73  68  84 S12       29.88R VSB 1
LONE ROCK      CLOUDY    75  72  90 CALM      29.83R
MINERAL POINT  CLOUDY    73  73 100 W3        29.84S
MADISON        TSTM      75  68  78 S9        29.83R
MIDDLETON      CLOUDY    77  69  75 S10G24    29.86R
WATERTOWN      CLOUDY    81  68  65 S9        29.82R HX  83
MONROE         CLOUDY    79  68  69 S6        29.84R HX  81
JANESVILLE     MOCLDY    84  64  51 S9        29.82  HX  86
$$

WIZ051-052-058>065-066-070>072-210300-
SOUTHEAST WISCONSIN

CITY           SKY/WX    TMP DP  RH WIND       PRES   REMARKS
MILWAUKEE      CLOUDY    77  69  76 S3        29.85R
WAUKESHA       CLEAR     77  64  65 S7        29.86R
MILWAUKEE/TIMM CLEAR     79  64  61 SE7       29.85R HX  81
RACINE         CLEAR     73  68  84 S3        29.87R
BURLINGTON     CLEAR     72  68  87 CALM      29.86R
KENOSHA        CLEAR     78  67  68 S3        29.87R HX  80
FOND DU LAC    TSTM      71  67  87 N24G35    29.88R
SHEBOYGAN      CLOUDY    72  69  90 E3        29.84R
WEST BEND        N/A     72  68  88 SE3       29.83F
JUNEAU         CLOUDY    78  68  73 S5        29.83S
$$

LSZ147-162-210300-
LAKE SUPERIOR

STATION/POSITION TIME  TEMP    WIND        PRES    WAVE
                       AIR SEA DIR/SP/G            HT/PER
                 (UTC) (F)     (DEG/KT/KT) (MB)    (FT/S)
W MID LAKE BUOY  0050   61 55  250/ 12/ 12 1009.6R   2/ 5
DEVILS ISLAND    0100   64     270/ 14/ 15 1010.5R
SAXON HARBOR     0130   62     190/  3/  4 1010.8R
$$

LMZ867-665-643>646-210300-
LAKE MICHIGAN

STATION/POSITION TIME  TEMP    WIND        PRES    WAVE
                       AIR SEA DIR/SP/G            HT/PER
                 (UTC) (F)     (DEG/KT/KT) (MB)    (FT/S)
S GREEN BAY BUOY 0130   68 66   30/  4/  4 1010.0S
N MID LAKE BUOY  0050   67 65  110/  6/  8 1012.0F   2/ 5
NORTHPORT PIER   0140   67     140/  6/ 10 1009.8F
KEWAUNEE LAKESHO 0130   64     200/  2/  3 1010.2R
SHEBOYGAN LAKESH 0100   70     170/ 12/ 12 1009.7S
PORT WASHINGTON  0130   71     190/  6/  9 1011.2R
ATWATER BUOY     0009   70 64  160/ 12/ 14 1010.0S
MILWAUKEE LAKESH 0130   70     140/  4/  6   N/A
S MID LAKE BUOY  0050   74 69  140/ 14/ 16 1010.6F   1/ 3
KENOSHA   LAKESH 0100   74     190/  8/ 12 1010.2
$$

TC  - TEMPERATURE IN CELSIUS
VSB - VISIBILITY IN STATUTE MILES
WCI - WIND CHILL INDEX
HX  - HEAT INDEX





USA.gov is the U.S. government's official web portal to all federal, state and local government web resources and services.